Miscellaneous Local Product
Issued by NWS Hastings, NE

Home | Current Version | Previous Version | Graphics & Text | Print | Product List | Glossary On
Versions: 1 2 3 4 5 6 7 8 9 10 11 12 13 14 15 16 17 18 19 20 21 22 23 24 25 26 27 28 29 30 31 32 33 34 35 36 37 38 39 40 41 42 43 44 45 46 47 48 49 50
000
AXUS43 KGID 222010
MISGRI

GID CWA HOURLY WEATHER ROUNDUP
NATIONAL WEATHER SERVICE HASTINGS NE
300 PM CDT MON SEP 22 2014

NOTE: "FAIR" INDICATES FEW OR NO CLOUDS BELOW 12,000 FEET WITH NO
SIGNIFICANT WEATHER AND/OR OBSTRUCTIONS TO VISIBILITY.

...SOUTH CENTRAL NEBRASKA...

CITY           SKY/WX    TMP DP  RH WIND       PRES   REMARKS
GRAND ISLAND   PTSUNNY   73  49  42 S13       30.23F
HASTINGS       MOSUNNY   73  45  36 S10       30.23F
KEARNEY        MOSUNNY   72  48  43 SE15      30.23F
ORD            PTSUNNY   72  49  44 S14G21    30.19F
YORK           MOSUNNY   72  50  46 S8        30.23F
AURORA         MOSUNNY   73  45  36 SW9       30.23F
LEXINGTON      CLOUDY    73  47  40 S17       30.20F
HOLDREGE       MOSUNNY   72  45  38 S15       30.22F
HEBRON         PTSUNNY   74  42  31 S7        30.24F

...NEBRASKA PANHANDLE...

CITY           SKY/WX    TMP DP  RH WIND       PRES   REMARKS
CHADRON        CLOUDY    74  53  48 S24G30    30.00F
ALLIANCE       CLOUDY    68  54  60 SE20      30.10F
SCOTTSBLUFF    PTSUNNY   77  52  41 SE12      30.06F
SIDNEY         CLOUDY    69  53  56 S21G29    30.13F

...WESTERN AND NORTH CENTRAL NEBRASKA...

CITY           SKY/WX    TMP DP  RH WIND       PRES   REMARKS
VALENTINE      PTSUNNY   71  45  39 S16G29    30.11F
AINSWORTH      PTSUNNY   69  45  41 S17       30.15F
ONEILL         PTSUNNY   74  50  42 S17G23    30.18F
BROKEN BOW     PTSUNNY   73  47  39 S18G25    30.19F
IMPERIAL       CLOUDY    64  54  69 SE13      30.14F
NORTH PLATTE   LGT RAIN  59  52  77 SE8       30.17F
MCCOOK         CLOUDY    76  44  32 SE15G24   30.18F

...EASTERN NEBRASKA...

CITY           SKY/WX    TMP DP  RH WIND       PRES   REMARKS
NORFOLK        MOSUNNY   72  49  44 S14       30.21F
SO SIOUX CITY  MOSUNNY   73  49  42 S8        30.22F
TEKAMAH        SUNNY     75  47  36 S10       30.23F
COLUMBUS       MOSUNNY   72  46  40 S9        30.24F
ALBION         MOSUNNY   73  47  38 S15       30.21F
OMAHA EPPLEY   MOSUNNY   72  49  44 SE7       30.24F
OFFUTT AFB     SUNNY     73  52  48 S7        30.24F
MILLARD        SUNNY     73  50  45 SE5       30.23F
LINCOLN        SUNNY     75  47  36 S7        30.24F
NEBRASKA CITY    N/A     72  39  29 S6        30.25F
BEATRICE       SUNNY     74  46  36 S8        30.23F
FALLS CITY     SUNNY     75  49  39 CALM      30.24F

...NORTHERN KANSAS...

CITY           SKY/WX    TMP DP  RH WIND       PRES   REMARKS
GOODLAND       CLOUDY    73  49  42 S21G31    30.18F
HILL CITY      LGT RAIN  79  45  29 SE13G25   30.21F
NORTON         PTCLDY    75  39  27 SE15      30.19F
PHILLIPSBURG   MOSUNNY   77  45  31 SE13      30.21F
SMITH CENTER   SUNNY     75  45  33 S13       30.23F
BELOIT         SUNNY     77  46  33 SE7       30.22F
HAYS           MOSUNNY   77  46  33 SE18      30.22F
RUSSELL        MOSUNNY   75  47  36 S13       30.22F
CONCORDIA      MOSUNNY   72  49  44 S7        30.25F
SALINA         SUNNY     75  48  38 S7        30.24F
TOPEKA         SUNNY     74  48  39 CALM      30.26F



USA.gov is the U.S. government's official web portal to all federal, state and local government web resources and services.